This is the latest recevied weather packets stored in our database for station/object KI2K. If no packets are shown the sender has not sent any weather packets the latest 10 day(s).
| Time | Temp. | Humidity | Pressure | Rain* | Wind** | Luminosity | Snow |
|---|---|---|---|---|---|---|---|
| 1777968738 | 12.78° C | 99% | 1006.2 hPa | 12.7 mm | - | 0 W/m² | - |
| 1777968435 | 12.78° C | 99% | 1005.6 hPa | 11.94 mm | - | 0 W/m² | - |
| 1777968130 | 12.78° C | 99% | 1006.2 hPa | 8.89 mm | - | 0 W/m² | - |
| 1777967826 | 12.78° C | 99% | 1006.9 hPa | 6.1 mm | - | 0 W/m² | - |
| 1777967523 | 12.78° C | 99% | 1007.3 hPa | 4.83 mm | - | 0 W/m² | - |
| 1777967220 | 12.78° C | 99% | 1007.4 hPa | 7.87 mm | - | 0 W/m² | - |
| 1777966917 | 12.78° C | 99% | 1007.6 hPa | 10.67 mm | - | 0 W/m² | - |
| 1777966615 | 12.78° C | 99% | 1007.3 hPa | 8.89 mm | - | 0 W/m² | - |
| 1777966313 | 12.78° C | 99% | 1007 hPa | 3.05 mm | - | 0 W/m² | - |
| 1777966008 | 12.78° C | 99% | 1007.4 hPa | 3.05 mm | - | 0 W/m² | - |
| 1777965705 | 12.78° C | 99% | 1007.4 hPa | 4.83 mm | - | 0 W/m² | - |
| 1777965400 | 12.78° C | 99% | 1006.7 hPa | 3.05 mm | - | 0 W/m² | - |
| 1777965099 | 12.78° C | 99% | 1006.6 hPa | 4.83 mm | - | 0 W/m² | - |
| 1777964796 | 12.78° C | 99% | 1007.3 hPa | 10.67 mm | - | 0 W/m² | - |
| 1777964492 | 12.78° C | 99% | 1007 hPa | 16.76 mm | - | 0 W/m² | - |
| 1777964188 | 12.78° C | 99% | 1007.6 hPa | 11.94 mm | - | 0 W/m² | - |
| 1777963885 | 12.78° C | 99% | 1007.1 hPa | 3.05 mm | - | 0 W/m² | - |
| 1777963581 | 12.78° C | 99% | 1006.1 hPa | 3.05 mm | - | 0 W/m² | - |
| 1777963280 | 12.78° C | 98% | 1006.1 hPa | 6.1 mm | - | 0 W/m² | - |
| 1777962977 | 12.78° C | 98% | 1005.8 hPa | 10.67 mm | - | 0 W/m² | - |
| 1777962673 | 13.33° C | 98% | 1006.1 hPa | 7.11 mm | - | 0 W/m² | - |
| 1777962369 | 13.33° C | 97% | 1006.2 hPa | 4.83 mm | - | 0 W/m² | - |
| 1777962067 | 13.33° C | 97% | 1005.6 hPa | 9.65 mm | - | 0 W/m² | - |
| 1777961764 | 13.89° C | 97% | 1005.6 hPa | 7.11 mm | - | 0 W/m² | - |
| 1777961462 | 13.89° C | 96% | 1006.2 hPa | 4.32 mm | - | 0 W/m² | - |
* Rain latest hour (hover to see other rain measurements)
** Current wind speed in m/s (hover to see current wind gust speed)